Powrót do katalogu

STARLINK-35813

AktywnyŁącznośćVLEO
NORAD 66361·PAYLOAD·🇺🇸 United States

Wystrzelony Nov 6, 2025 z Vandenberg Space Force Base

Loading…

Następne Przeloty (najbliższe 24 godziny)

TLE

ŚwieżeSource: CelesTrak SupGP

Epoka: Sep 14, 2026, 23:01 UTC

1 66361C 25254P   26257.95951389  .00046232  00000+0  14870-2 0  2576
2 66361  53.1587  71.6872 0001264  80.8677  27.3626 15.31673769    18

Śledź STARLINK-35813 w czasie rzeczywistym z AllMySat

Download on the App Store